This is the latest recevied weather packets stored in our database for station/object WP4PW. If no packets are shown the sender has not sent any weather packets the latest 10 day(s).
| Time | Temp. | Humidity | Pressure | Rain* | Wind** | Luminosity | Snow |
|---|---|---|---|---|---|---|---|
| 1777764290 | 27.22° C | 84% | 1019.8 hPa | 0 mm | - | 0 W/m² | - |
| 1777763986 | 27.22° C | 84% | 1019.7 hPa | 0 mm | - | 0 W/m² | - |
| 1777763684 | 27.22° C | 84% | 1019.7 hPa | 0 mm | - | 0 W/m² | - |
| 1777763382 | 27.22° C | 84% | 1019.7 hPa | 0 mm | - | 0 W/m² | - |
| 1777763079 | 27.22° C | 84% | 1019.7 hPa | 0 mm | - | 0 W/m² | - |
| 1777762777 | 27.22° C | 83% | 1019.7 hPa | 0 mm | - | 0 W/m² | - |
| 1777762473 | 27.22° C | 83% | 1019.7 hPa | 0 mm | - | 1 W/m² | - |
| 1777762170 | 27.22° C | 83% | 1019.6 hPa | 0 mm | - | 2 W/m² | - |
| 1777761866 | 27.22° C | 82% | 1019.7 hPa | 0 mm | - | 4 W/m² | - |
| 1777761563 | 27.78° C | 82% | 1019.6 hPa | 0 mm | - | 8 W/m² | - |
| 1777761261 | 27.78° C | 81% | 1019.6 hPa | 0 mm | - | 11 W/m² | - |
| 1777760959 | 27.78° C | 81% | 1019.6 hPa | 0 mm | - | 16 W/m² | - |
| 1777760656 | 27.78° C | 81% | 1019.6 hPa | 0 mm | - | 22 W/m² | - |
| 1777760351 | 27.78° C | 82% | 1019.6 hPa | 0 mm | - | 30 W/m² | - |
| 1777760048 | 28.33° C | 81% | 1019.4 hPa | 0 mm | - | 39 W/m² | - |
| 1777759745 | 28.33° C | 80% | 1019.5 hPa | 0 mm | - | 48 W/m² | - |
| 1777759441 | 28.33° C | 79% | 1019.6 hPa | 0 mm | - | 58 W/m² | - |
| 1777759137 | 28.33° C | 78% | 1019.3 hPa | 0 mm | - | 69 W/m² | - |
| 1777758835 | 28.33° C | 79% | 1019.4 hPa | 0 mm | - | 78 W/m² | - |
| 1777758532 | 28.33° C | 78% | 1019.2 hPa | 0 mm | - | 92 W/m² | - |
| 1777758228 | 28.33° C | 78% | 1019.3 hPa | 0 mm | - | 105 W/m² | - |
| 1777757926 | 28.89° C | 78% | 1019.1 hPa | 0 mm | - | 119 W/m² | - |
| 1777757623 | 28.89° C | 78% | 1018.9 hPa | 0 mm | - | 133 W/m² | - |
| 1777757322 | 28.89° C | 78% | 1018.9 hPa | 0 mm | - | 148 W/m² | - |
| 1777757020 | 28.89° C | 78% | 1018.7 hPa | 0 mm | - | 165 W/m² | - |
* Rain latest hour (hover to see other rain measurements)
** Current wind speed in m/s (hover to see current wind gust speed)